| time (UTC) | temp C | wind direction | speed KPH | gust KPH | rain 1hr cm | rain 24hr cm | rain mn cm | humidity % | barometer mb |
| 20260504235008 | 21 | 43 | 16.1 | 29.0 | 0.00 | 0.00 | 0.00 | 29 | 1005.0 |
| 20260504234510 | 22 | 23 | 16.1 | 30.6 | 0.00 | 0.00 | 0.00 | 29 | 1005.0 |
| 20260504234007 | 22 | 6 | 20.9 | 32.2 | 0.00 | 0.00 | 0.00 | 29 | 1005.0 |
| 20260504233506 | 22 | 352 | 19.3 | 29.0 | 0.00 | 0.00 | 0.00 | 29 | 1004.9 |
| 20260504233008 | 22 | 25 | 14.5 | 27.4 | 0.00 | 0.00 | 0.00 | 29 | 1004.7 |
| 20260504232505 | 22 | 38 | 19.3 | 27.4 | 0.00 | 0.00 | 0.00 | 28 | 1004.5 |
| 20260504232006 | 22 | 45 | 12.9 | 27.4 | 0.00 | 0.00 | 0.00 | 28 | 1004.4 |
| 20260504231512 | 23 | 48 | 12.9 | 30.6 | 0.00 | 0.00 | 0.00 | 29 | 1004.4 |
| 20260504231006 | 23 | 32 | 20.9 | 30.6 | 0.00 | 0.00 | 0.00 | 27 | 1004.3 |
| 20260504230504 | 23 | 36 | 22.5 | 32.2 | 0.00 | 0.00 | 0.00 | 27 | 1004.3 |
| 20260504230018 | 23 | 30 | 22.5 | 32.2 | 0.00 | 0.00 | 0.00 | 27 | 1004.1 |
| 20260504225509 | 23 | 7 | 16.1 | 37.0 | 0.00 | 0.00 | 0.00 | 28 | 1003.8 |
| 20260504225009 | 24 | 328 | 19.3 | 37.0 | 0.00 | 0.00 | 0.00 | 27 | 1003.7 |
| 20260504224523 | 24 | 26 | 16.1 | 29.0 | 0.00 | 0.00 | 0.00 | 27 | 1003.6 |
| 20260504224004 | 25 | 344 | 12.9 | 30.6 | 0.00 | 0.00 | 0.00 | 27 | 1003.5 |
| 20260504223511 | 25 | 30 | 11.3 | 30.6 | 0.00 | 0.00 | 0.00 | 27 | 1003.5 |
| 20260504223033 | 25 | 1 | 11.3 | 30.6 | 0.00 | 0.00 | 0.00 | 27 | 1003.3 |
| 20260504222504 | 25 | 7 | 19.3 | 30.6 | 0.00 | 0.00 | 0.00 | 26 | 1003.2 |
| 20260504222004 | 26 | 48 | 12.9 | 25.7 | 0.00 | 0.00 | 0.00 | 27 | 1003.0 |
| 20260504221512 | 26 | 1 | 11.3 | 25.7 | 0.00 | 0.00 | 0.00 | 28 | 1002.8 |
| 20260504221005 | 26 | 300 | 12.9 | 24.1 | 0.00 | 0.00 | 0.00 | 26 | 1002.7 |
| 20260504220506 | 26 | 26 | 9.7 | 30.6 | 0.00 | 0.00 | 0.00 | 28 | 1002.7 |
| 20260504220017 | 26 | 351 | 16.1 | 32.2 | 0.00 | 0.00 | 0.00 | 27 | 1002.6 |
| 20260504215507 | 26 | 5 | 9.7 | 32.2 | 0.00 | 0.00 | 0.00 | 28 | 1002.5 |
| 20260504215008 | 26 | 36 | 12.9 | 25.7 | 0.00 | 0.00 | 0.00 | 28 | 1002.5 |
| 20260504214516 | 26 | 2 | 12.9 | 29.0 | 0.00 | 0.00 | 0.00 | 30 | 1002.6 |
| 20260504214008 | 25 | 20 | 12.9 | 27.4 | 0.00 | 0.00 | 0.00 | 28 | 1002.6 |
| 20260504213507 | 26 | 17 | 16.1 | 25.7 | 0.00 | 0.00 | 0.00 | 29 | 1002.6 |
| 20260504213021 | 26 | 2 | 14.5 | 25.7 | 0.00 | 0.00 | 0.00 | 29 | 1002.6 |
| 20260504212513 | 26 | 318 | 14.5 | 25.7 | 0.00 | 0.00 | 0.00 | 30 | 1002.5 |
| 20260504212008 | 26 | 356 | 12.9 | 25.7 | 0.00 | 0.00 | 0.00 | 30 | 1002.5 |
| 20260504211532 | 26 | 19 | 16.1 | 32.2 | 0.00 | 0.00 | 0.00 | 30 | 1002.4 |
| 20260504211004 | 26 | 48 | 16.1 | 32.2 | 0.00 | 0.00 | 0.00 | 30 | 1002.4 |
| 20260504210504 | 26 | 359 | 12.9 | 30.6 | 0.00 | 0.00 | 0.00 | 32 | 1002.4 |
| 20260504210014 | 26 | 331 | 14.5 | 22.5 | 0.00 | 0.00 | 0.00 | 31 | 1002.3 |
| 20260504205507 | 26 | 9 | 6.4 | 25.7 | 0.00 | 0.00 | 0.00 | 31 | 1002.4 |
| 20260504205005 | 26 | 60 | 16.1 | 25.7 | 0.00 | 0.00 | 0.00 | 32 | 1002.3 |
| 20260504204533 | 26 | 50 | 12.9 | 24.1 | 0.00 | 0.00 | 0.00 | 32 | 1002.2 |
| 20260504204011 | 26 | 38 | 11.3 | 32.2 | 0.00 | 0.00 | 0.00 | 31 | 1002.2 |
| 20260504203508 | 26 | 345 | 16.1 | 32.2 | 0.00 | 0.00 | 0.00 | 32 | 1002.2 |
| 20260504203026 | 26 | 306 | 11.3 | 22.5 | 0.00 | 0.00 | 0.00 | 31 | 1002.3 |
| 20260504202506 | 26 | 1 | 11.3 | 25.7 | 0.00 | 0.00 | 0.00 | 32 | 1002.2 |
| 20260504202011 | 26 | 260 | 17.7 | 37.0 | 0.00 | 0.00 | 0.00 | 31 | 1002.2 |
| 20260504201520 | 27 | 308 | 19.3 | 37.0 | 0.00 | 0.00 | 0.00 | 32 | 1002.2 |
| 20260504201006 | 27 | 321 | 12.9 | 27.4 | 0.00 | 0.00 | 0.00 | 31 | 1002.1 |
| 20260504200510 | 26 | 331 | 16.1 | 27.4 | 0.00 | 0.00 | 0.00 | 31 | 1002.2 |
| 20260504200018 | 26 | 296 | 16.1 | 24.1 | 0.00 | 0.00 | 0.00 | 30 | 1002.2 |
| 20260504195503 | 26 | 352 | 14.5 | 20.9 | 0.00 | 0.00 | 0.00 | 30 | 1002.1 |
| 20260504195004 | 26 | 34 | 11.3 | 30.6 | 0.00 | 0.00 | 0.00 | 30 | 1002.2 |
| 20260504194515 | 26 | 96 | 16.1 | 32.2 | 0.00 | 0.00 | 0.00 | 30 | 1002.1 |
| 20260504194008 | 26 | 325 | 16.1 | 32.2 | 0.00 | 0.00 | 0.00 | 30 | 1002.1 |
| 20260504193509 | 27 | 348 | 16.1 | 27.4 | 0.00 | 0.00 | 0.00 | 30 | 1001.9 |
| 20260504193012 | 27 | 36 | 11.3 | 24.1 | 0.00 | 0.00 | 0.00 | 30 | 1001.9 |
| 20260504192510 | 27 | 360 | 12.9 | 27.4 | 0.00 | 0.00 | 0.00 | 30 | 1001.8 |
| 20260504192007 | 27 | 307 | 9.7 | 27.4 | 0.00 | 0.00 | 0.00 | 27 | 1001.9 |
| 20260504191525 | 27 | 327 | 16.1 | 24.1 | 0.00 | 0.00 | 0.00 | 29 | 1001.8 |
| 20260504191010 | 27 | 346 | 9.7 | 30.6 | 0.00 | 0.00 | 0.00 | 29 | 1001.8 |
| 20260504190507 | 27 | 337 | 12.9 | 30.6 | 0.00 | 0.00 | 0.00 | 27 | 1001.8 |
| 20260504190027 | 27 | 298 | 9.7 | 30.6 | 0.00 | 0.00 | 0.00 | 29 | 1001.6 |
| 20260504185508 | 27 | 341 | 9.7 | 30.6 | 0.00 | 0.00 | 0.00 | 28 | 1001.6 |
| 20260504185008 | 27 | 334 | 16.1 | 29.0 | 0.00 | 0.00 | 0.00 | 27 | 1001.6 |
| 20260504184514 | 27 | 354 | 14.5 | 29.0 | 0.00 | 0.00 | 0.00 | 28 | 1001.5 |
| 20260504184007 | 27 | 350 | 11.3 | 24.1 | 0.00 | 0.00 | 0.00 | 29 | 1001.5 |
| 20260504183509 | 27 | 304 | 9.7 | 27.4 | 0.00 | 0.00 | 0.00 | 28 | 1001.5 |
| 20260504183022 | 27 | 290 | 9.7 | 27.4 | 0.00 | 0.00 | 0.00 | 28 | 1001.6 |
| 20260504182504 | 27 | 302 | 17.7 | 29.0 | 0.00 | 0.00 | 0.00 | 27 | 1001.7 |
| 20260504182009 | 27 | 306 | 11.3 | 29.0 | 0.00 | 0.00 | 0.00 | 28 | 1001.7 |
| 20260504181523 | 27 | 310 | 14.5 | 29.0 | 0.00 | 0.00 | 0.00 | 28 | 1001.8 |
| 20260504181008 | 27 | 302 | 12.9 | 29.0 | 0.00 | 0.00 | 0.00 | 29 | 1001.7 |
| 20260504180510 | 27 | 318 | 12.9 | 29.0 | 0.00 | 0.00 | 0.00 | 27 | 1001.9 |
| 20260504180022 | 26 | 290 | 17.7 | 29.0 | 0.00 | 0.00 | 0.00 | 27 | 1001.9 |
| 20260504175508 | 27 | 19 | 14.5 | 24.1 | 0.00 | 0.00 | 0.00 | 28 | 1002.1 |
| 20260504175008 | 27 | 290 | 9.7 | 22.5 | 0.00 | 0.00 | 0.00 | 28 | 1002.1 |
| 20260504174518 | 27 | 318 | 6.4 | 19.3 | 0.00 | 0.00 | 0.00 | 31 | 1002.1 |
| 20260504174013 | 26 | 17 | 4.8 | 22.5 | 0.00 | 0.00 | 0.00 | 34 | 1002.2 |
| 20260504173504 | 26 | 17 | 11.3 | 22.5 | 0.00 | 0.00 | 0.00 | 32 | 1002.1 |
| 20260504173016 | 26 | 8 | 6.4 | 20.9 | 0.00 | 0.00 | 0.00 | 32 | 1002.2 |
| 20260504172508 | 26 | 26 | 11.3 | 19.3 | 0.00 | 0.00 | 0.00 | 33 | 1002.2 |
| 20260504172011 | 26 | 311 | 6.4 | 14.5 | 0.00 | 0.00 | 0.00 | 32 | 1002.3 |
| 20260504171520 | 25 | 331 | 4.8 | 20.9 | 0.00 | 0.00 | 0.00 | 34 | 1002.3 |
| 20260504171015 | 25 | 341 | 6.4 | 20.9 | 0.00 | 0.00 | 0.00 | 35 | 1002.4 |
| 20260504170507 | 25 | 334 | 11.3 | 19.3 | 0.00 | 0.00 | 0.00 | 36 | 1002.6 |
| 20260504151013 | 21 | 6.4 | 12.9 | 0.00 | 0.00 | 0.00 | 42 | 1002.5 | |
| 20260504150508 | 20 | 3.2 | 9.7 | 0.00 | 0.00 | 0.00 | 41 | 1002.5 | |
| 20260504141009 | 18 | 313 | 6.4 | 11.3 | 0.00 | 0.00 | 0.00 | 52 | 1002.9 |
| 20260504140507 | 18 | 3.2 | 8.0 | 0.00 | 0.00 | 0.00 | 53 | 1003.0 | |
| 20260504130507 | 13 | 0.0 | 3.2 | 0.00 | 0.00 | 0.00 | 66 | 1002.6 | |
| 20260504110504 | 8 | 168 | 0.0 | 0.0 | 0.00 | 0.00 | 0.00 | 80 | 1002.4 |
| 20260504100502 | 8 | 168 | 0.0 | 0.0 | 0.00 | 0.00 | 0.00 | 77 | 1002.6 |
| 20260504082004 | 10 | 168 | 0.0 | 0.0 | 0.00 | 0.00 | 0.00 | 72 | 1003.9 |
| 20260504081503 | 10 | 168 | 0.0 | 0.0 | 0.00 | 0.00 | 0.00 | 71 | 1004.0 |
| 20260504081003 | 10 | 168 | 0.0 | 1.6 | 0.00 | 0.00 | 0.00 | 71 | 1004.2 |
| 20260504080502 | 10 | 168 | 0.0 | 1.6 | 0.00 | 0.00 | 0.00 | 70 | 1004.1 |
| 20260504050504 | 13 | 157 | 3.2 | 4.8 | 0.00 | 0.00 | 0.00 | 61 | 1006.8 |
| 20260504050020 | 13 | 181 | 1.6 | 1.6 | 0.00 | 0.00 | 0.00 | 60 | 1006.8 |
| 20260504045504 | 13 | 181 | 1.6 | 1.6 | 0.00 | 0.00 | 0.00 | 59 | 1006.8 |
| 20260504045004 | 13 | 181 | 1.6 | 1.6 | 0.00 | 0.00 | 0.00 | 59 | 1006.9 |
| 20260504044524 | 13 | 181 | 1.6 | 3.2 | 0.00 | 0.00 | 0.00 | 58 | 1006.9 |
| 20260504044005 | 13 | 181 | 0.0 | 3.2 | 0.00 | 0.00 | 0.00 | 57 | 1007.0 |
| 20260504043504 | 14 | 181 | 0.0 | 3.2 | 0.00 | 0.00 | 0.00 | 57 | 1007.1 |
| 20260504043010 | 14 | 181 | 1.6 | 3.2 | 0.00 | 0.00 | 0.00 | 56 | 1007.1 |
| 20260504042502 | 14 | 181 | 3.2 | 3.2 | 0.00 | 0.00 | 0.00 | 56 | 1007.1 |
| 20260504042003 | 14 | 181 | 3.2 | 3.2 | 0.00 | 0.00 | 0.00 | 56 | 1007.1 |
| 20260504041515 | 14 | 181 | 1.6 | 4.8 | 0.00 | 0.00 | 0.00 | 55 | 1007.3 |
| 20260504041004 | 15 | 181 | 1.6 | 4.8 | 0.00 | 0.00 | 0.00 | 54 | 1007.3 |
| 20260504040503 | 15 | 181 | 3.2 | 3.2 | 0.00 | 0.00 | 0.00 | 53 | 1007.3 |
| 20260504040017 | 15 | 181 | 0.0 | 3.2 | 0.00 | 0.00 | 0.00 | 53 | 1007.4 |
| 20260504035505 | 15 | 181 | 0.0 | 1.6 | 0.00 | 0.00 | 0.00 | 53 | 1007.4 |
| 20260504035004 | 15 | 181 | 0.0 | 3.2 | 0.00 | 0.00 | 0.00 | 52 | 1007.5 |
| 20260504034512 | 15 | 181 | 1.6 | 4.8 | 0.00 | 0.00 | 0.00 | 52 | 1007.5 |
| 20260504034005 | 15 | 181 | 3.2 | 4.8 | 0.00 | 0.00 | 0.00 | 52 | 1007.6 |
| 20260504033504 | 15 | 179 | 3.2 | 4.8 | 0.00 | 0.00 | 0.00 | 52 | 1007.6 |
| 20260504033010 | 15 | 174 | 3.2 | 4.8 | 0.00 | 0.00 | 0.00 | 51 | 1007.6 |
| 20260504032504 | 15 | 224 | 1.6 | 3.2 | 0.00 | 0.00 | 0.00 | 49 | 1007.6 |
| 20260504032006 | 16 | 224 | 0.0 | 0.0 | 0.00 | 0.00 | 0.00 | 49 | 1007.6 |
| 20260504031510 | 16 | 224 | 0.0 | 0.0 | 0.00 | 0.00 | 0.00 | 49 | 1007.7 |
| 20260504031003 | 16 | 224 | 0.0 | 0.0 | 0.00 | 0.00 | 0.00 | 48 | 1007.7 |
| 20260504030504 | 16 | 224 | 0.0 | 0.0 | 0.00 | 0.00 | 0.00 | 49 | 1007.7 |
| 20260504030021 | 16 | 224 | 0.0 | 0.0 | 0.00 | 0.00 | 0.00 | 47 | 1007.8 |
| 20260504025507 | 16 | 224 | 0.0 | 0.0 | 0.00 | 0.00 | 0.00 | 45 | 1007.8 |
| 20260504025004 | 17 | 224 | 0.0 | 0.0 | 0.00 | 0.00 | 0.00 | 45 | 1007.7 |
| 20260504024515 | 17 | 224 | 0.0 | 1.6 | 0.00 | 0.00 | 0.00 | 46 | 1007.7 |
| 20260504024004 | 17 | 224 | 0.0 | 0.0 | 0.00 | 0.00 | 0.00 | 45 | 1007.8 |
| 20260504023505 | 17 | 224 | 0.0 | 3.2 | 0.00 | 0.00 | 0.00 | 45 | 1007.9 |
| 20260504023016 | 17 | 224 | 0.0 | 3.2 | 0.00 | 0.00 | 0.00 | 44 | 1007.9 |
| 20260504022506 | 17 | 224 | 0.0 | 3.2 | 0.00 | 0.00 | 0.00 | 43 | 1007.9 |
| 20260504022005 | 17 | 224 | 0.0 | 3.2 | 0.00 | 0.00 | 0.00 | 43 | 1007.9 |
| 20260504021516 | 17 | 224 | 0.0 | 3.2 | 0.00 | 0.00 | 0.00 | 42 | 1008.0 |
| 20260504021005 | 18 | 224 | 0.0 | 3.2 | 0.00 | 0.00 | 0.00 | 42 | 1008.1 |
| 20260504020505 | 18 | 224 | 1.6 | 3.2 | 0.00 | 0.00 | 0.00 | 42 | 1008.1 |
| 20260504020017 | 18 | 224 | 1.6 | 6.4 | 0.00 | 0.00 | 0.00 | 41 | 1008.2 |
| 20260504015504 | 18 | 234 | 1.6 | 6.4 | 0.00 | 0.00 | 0.00 | 40 | 1008.1 |
| 20260504015008 | 18 | 246 | 1.6 | 6.4 | 0.00 | 0.00 | 0.00 | 39 | 1008.1 |
| 20260504014516 | 18 | 233 | 0.0 | 3.2 | 0.00 | 0.00 | 0.00 | 39 | 1008.1 |
| 20260504014004 | 19 | 231 | 0.0 | 3.2 | 0.00 | 0.00 | 0.00 | 39 | 1008.0 |
| 20260504013504 | 19 | 230 | 0.0 | 3.2 | 0.00 | 0.00 | 0.00 | 38 | 1008.1 |
| 20260504013014 | 20 | 230 | 0.0 | 3.2 | 0.00 | 0.00 | 0.00 | 38 | 1008.1 |
| 20260504012509 | 20 | 214 | 0.0 | 4.8 | 0.00 | 0.00 | 0.00 | 38 | 1008.2 |
| 20260504012006 | 20 | 236 | 0.0 | 4.8 | 0.00 | 0.00 | 0.00 | 36 | 1008.3 |
| 20260504011510 | 20 | 240 | 0.0 | 3.2 | 0.00 | 0.00 | 0.00 | 36 | 1008.3 |
| 20260504011009 | 21 | 240 | 0.0 | 6.4 | 0.00 | 0.00 | 0.00 | 35 | 1008.4 |
| 20260504010507 | 21 | 238 | 0.0 | 6.4 | 0.00 | 0.00 | 0.00 | 35 | 1008.4 |
| 20260504010010 | 21 | 231 | 1.6 | 6.4 | 0.00 | 0.00 | 0.00 | 35 | 1008.5 |
| 20260504005504 | 21 | 231 | 1.6 | 6.4 | 0.00 | 0.00 | 0.00 | 35 | 1008.5 |
| 20260504005005 | 21 | 241 | 3.2 | 6.4 | 0.00 | 0.00 | 0.00 | 33 | 1008.5 |
| 20260504004517 | 21 | 214 | 1.6 | 4.8 | 0.00 | 0.00 | 0.00 | 33 | 1008.5 |
| 20260504004008 | 22 | 184 | 0.0 | 8.0 | 0.00 | 0.00 | 0.00 | 33 | 1008.6 |
| 20260504003505 | 22 | 252 | 0.0 | 8.0 | 0.00 | 0.00 | 0.00 | 32 | 1008.6 |
| 20260504003018 | 22 | 230 | 1.6 | 8.0 | 0.00 | 0.00 | 0.00 | 32 | 1008.5 |
| 20260504002504 | 22 | 209 | 0.0 | 9.7 | 0.00 | 0.00 | 0.00 | 32 | 1008.5 |
| 20260504002007 | 22 | 205 | 1.6 | 14.5 | 0.00 | 0.00 | 0.00 | 31 | 1008.5 |
| 20260504001519 | 22 | 233 | 4.8 | 14.5 | 0.00 | 0.00 | 0.00 | 31 | 1008.7 |
| 20260504001008 | 23 | 235 | 3.2 | 14.5 | 0.00 | 0.00 | 0.00 | 30 | 1008.7 |
| 20260504000511 | 23 | 220 | 6.4 | 14.5 | 0.00 | 0.00 | 0.00 | 30 | 1008.7 |
| 20260504000019 | 23 | 235 | 6.4 | 14.5 | 0.00 | 0.00 | 0.00 | 30 | 1008.7 |
| 20260503235507 | 23 | 260 | 4.8 | 14.5 | 0.00 | 0.00 | 0.00 | 30 | 1008.8 |